Theta_e
321 325 328 331 331 329 325 323 325 326 327 328 328 328 327 330 330 331 333 335 334 331 328 329 330 330 327 327 328 326 324 323 325 324 323 320 321 319 317 315 308 304 305
316 321 325 329 330 331 330 327 324 326 326 328 328 328 328 330 330 332 333 334 333 330 328 328 327 328 329 328 327 324 321 322 324 320 319 313 314 316 315 311 304 303 304
313 317 322 326 330 331 332 332 330 327 327 328 329 329 331 331 330 331 333 333 332 332 330 328 329 327 327 326 326 324 321 320 320 322 318 311 310 312 313 310 303 301 302
311 316 319 323 327 330 334 334 334 333 331 331 331 329 329 327 330 332 333 332 333 333 332 330 329 328 327 328 330 326 323 321 318 319 317 318 315 309 303 307 302 299 300
308 312 317 321 324 329 331 334 334 334 335 334 333 332 331 332 332 333 334 333 334 333 332 331 331 330 331 331 329 324 321 321 319 318 315 314 312 312 305 298 298 298 300
308 309 314 320 322 327 329 330 331 332 334 335 334 333 332 332 332 332 332 333 333 332 332 330 330 331 329 325 322 320 320 318 318 318 316 311 307 303 300 297 297 295 296
307 308 308 313 318 321 325 328 328 328 331 334 334 333 333 333 332 332 332 331 330 328 328 328 326 324 322 317 315 314 314 314 314 315 311 306 302 302 299 296 294 293 295
308 308 308 308 311 316 320 322 324 325 327 331 332 333 333 333 333 333 332 331 329 326 326 325 323 318 316 312 309 309 309 311 309 304 301 299 298 299 298 296 294 291 292
304 305 306 307 307 308 310 315 318 321 324 327 329 331 332 332 331 332 333 331 331 326 324 321 315 311 308 307 305 303 301 303 302 299 298 296 296 297 296 295 295 293 290
304 303 303 304 305 307 308 308 310 312 316 323 326 328 330 330 329 329 329 328 328 319 317 312 309 306 305 303 303 300 300 299 298 297 295 294 294 294 294 294 293 292 291
301 302 303 304 304 305 305 307 308 309 310 314 320 324 326 327 326 325 326 322 318 313 312 309 305 304 301 301 299 298 297 296 294 295 293 292 293 292 292 292 292 290 291
301 302 303 303 303 304 304 305 307 309 310 311 311 316 323 322 322 322 318 312 310 308 308 304 301 300 298 298 297 294 294 293 292 292 291 290 291 290 291 290 290 290 290
302 302 303 303 303 303 304 305 306 308 310 310 310 310 310 315 319 317 312 308 306 303 302 299 298 296 295 295 295 293 293 292 291 291 290 289 289 288 289 289 289 289 288
301 302 303 303 303 303 304 305 306 308 308 308 308 309 309 310 312 314 309 305 303 299 299 296 295 294 294 293 292 291 291 291 290 290 290 289 289 288 288 288 288 288 287
300 302 303 304 304 303 303 304 305 306 306 305 306 307 307 308 305 300 299 296 298 295 295 291 290 290 291 290 290 290 289 288 288 288 288 288 288 289 289 287 287 287 287
301 301 302 303 303 303 302 303 303 303 303 303 303 304 301 298 295 293 292 290 290 290 289 290 289 289 288 291 291 290 288 287 286 286 286 287 285 287 288 288 289 289 286
300 301 301 302 303 303 303 302 302 303 301 299 297 295 293 292 291 290 289 288 289 288 288 288 288 288 287 291 291 290 287 286 286 285 285 284 285 285 285 287 287 286 287
301 301 301 302 304 305 304 303 303 301 297 296 294 291 291 290 289 288 288 288 288 287 287 288 287 288 287 291 290 288 287 286 286 286 285 284 284 285 285 285 284 284 284
300 299 301 301 302 302 303 300 297 296 295 295 293 291 290 288 288 287 287 287 286 286 286 286 287 287 287 290 289 287 286 285 285 285 285 285 284 285 286 284 284 284 284
298 298 299 299 300 301 300 295 294 294 294 294 293 292 290 288 288 288 287 287 287 285 285 285 287 286 287 290 289 287 285 284 284 284 285 284 285 286 286 284 284 282 283
295 295 297 296 296 295 294 293 293 292 293 291 290 288 288 287 289 288 287 286 285 284 284 285 285 286 287 288 289 288 285 284 284 283 283 284 287 287 286 286 284 284 285
293 291 293 292 292 292 292 291 291 292 289 288 287 287 286 287 286 286 286 285 285 285 284 284 284 285 286 287 289 288 287 287 284 284 284 284 286 287 286 286 286 287 286
288 288 288 288 288 287 288 288 289 288 286 286 285 285 285 286 286 286 285 284 285 284 284 283 283 283 284 286 289 289 288 288 285 285 286 286 286 287 287 287 286 284 285
285 285 286 285 284 285 285 285 286 285 285 285 285 285 285 285 285 286 286 286 284 284 284 284 283 283 282 284 286 287 288 287 286 286 285 285 285 285 284 283 285 283 282
284 284 284 284 283 284 284 284 284 285 285 285 284 285 285 285 285 285 286 285 286 287 285 285 285 284 282 283 285 286 286 286 286 284 284 283 282 282 282 282 282 281 279
283 283 282 282 282 283 282 282 282 283 284 284 284 285 285 285 284 284 284 287 287 287 288 289 287 286 287 287 286 286 287 288 287 283 281 280 281 280 280 280 279 278 277
Wind_Speed
15 17 18 17 17 17 17 18 17 15 11 9 9 9 9 8 8 7 9 9 9 10 7 4 5 6 6 6 6 3 3 3 3 3 0 5 3 3 4 4 6 6 7
14 16 17 18 19 19 18 16 16 16 15 11 9 9 9 8 8 7 8 10 10 9 7 7 6 6 6 6 6 6 2 1 1 1 1 2 3 4 4 4 5 6 5
15 15 17 20 18 19 18 18 18 17 16 15 10 9 8 8 8 8 8 9 11 10 10 10 7 6 3 5 8 8 7 4 2 2 2 2 2 2 4 4 4 5 4
14 15 17 18 19 19 17 18 17 17 16 17 12 14 11 10 9 10 8 10 13 14 12 11 10 8 7 8 7 6 3 3 5 2 1 1 2 2 3 3 4 4 5
17 18 16 18 19 16 17 16 17 18 17 16 16 12 13 10 9 10 12 12 10 11 12 12 11 10 8 8 6 7 5 3 3 3 3 3 2 2 2 3 4 4 4
17 17 17 16 15 15 15 16 17 17 17 17 18 18 17 14 11 11 9 8 8 8 11 11 9 9 7 7 6 5 6 5 4 3 4 4 3 4 2 1 2 1 3
16 16 15 15 15 17 18 15 18 19 19 19 18 19 17 17 16 13 9 9 8 8 11 12 9 6 6 7 7 6 5 5 4 5 4 3 3 2 2 2 2 1 2
14 12 14 14 15 15 16 16 16 17 17 18 19 17 18 12 12 13 10 10 9 10 12 10 9 9 9 8 7 5 4 5 5 7 5 5 4 3 2 2 4 2 2
8 10 10 12 12 13 15 16 16 15 15 18 15 16 15 16 13 15 13 10 11 9 10 11 10 9 9 10 10 6 6 6 6 7 7 6 4 4 3 2 1 2 4
8 7 8 8 8 9 10 12 15 18 17 16 16 15 16 15 14 14 13 10 9 9 10 10 10 11 9 9 11 8 9 8 6 5 7 6 5 5 3 3 2 0 1
5 5 5 4 5 5 7 9 11 12 12 15 13 13 12 13 12 11 10 7 7 10 10 11 11 12 12 11 9 9 10 11 9 7 8 7 7 5 5 3 3 2 1
3 4 4 4 5 6 7 8 7 8 8 7 7 8 9 9 9 9 7 7 9 8 10 11 10 12 11 11 11 12 11 12 11 10 9 9 6 7 6 5 5 3 2
2 2 3 3 5 6 7 8 8 9 6 7 7 8 9 9 9 8 8 8 8 9 8 10 11 12 12 11 10 10 12 11 11 10 9 10 9 8 6 5 4 3 3
4 5 5 4 5 4 5 6 6 5 5 6 6 7 7 8 8 8 7 8 9 11 11 11 11 12 12 11 10 12 11 10 9 9 8 10 9 9 9 6 5 4 3
8 8 7 4 3 4 5 6 6 7 7 8 7 7 5 5 5 7 8 8 9 9 10 10 7 9 9 9 12 12 12 12 10 7 7 8 8 11 9 6 5 5 5
9 5 4 3 3 4 6 6 8 6 6 8 8 6 5 4 4 5 6 6 6 8 9 11 11 13 8 15 18 15 12 11 11 11 8 8 8 8 9 6 8 7 5
8 5 4 3 3 5 6 8 7 6 7 7 5 5 6 6 5 5 6 7 9 9 10 10 12 11 9 19 19 17 10 11 10 10 10 8 6 8 7 10 9 7 8
9 4 3 4 1 3 4 5 5 6 6 6 5 5 5 5 7 6 6 7 8 11 11 11 11 11 9 21 18 15 10 8 9 10 10 10 10 9 8 7 7 6 5
2 2 4 6 6 2 3 4 4 3 5 7 5 6 6 5 6 7 8 6 6 6 7 7 8 9 8 19 19 14 9 9 9 9 10 10 9 14 15 8 7 5 5
6 5 7 8 6 5 2 5 5 5 6 5 5 4 6 7 8 7 7 5 5 3 3 3 4 5 9 17 20 14 7 8 7 6 5 9 9 15 17 9 7 7 6
6 5 4 5 8 7 2 2 2 4 3 2 4 4 4 4 5 5 3 6 6 6 6 7 5 5 8 13 21 19 8 8 8 8 8 7 17 17 18 16 8 7 4
5 6 5 5 5 7 5 4 4 3 1 3 4 4 4 3 3 6 5 6 6 7 7 7 5 4 6 11 18 19 14 14 9 9 7 7 19 17 18 14 14 13 10
5 6 6 6 7 5 5 4 4 4 2 3 2 2 3 3 5 7 7 6 7 7 7 7 7 6 5 7 18 21 19 15 7 6 9 14 17 18 15 18 14 11 5
5 5 7 6 6 5 5 4 4 3 2 2 3 3 3 2 2 3 5 6 7 8 8 9 9 8 9 9 9 10 11 14 10 10 8 10 10 11 10 7 10 4 5
4 4 5 4 5 6 6 7 6 4 3 2 3 2 2 3 3 4 5 6 6 8 8 9 9 11 10 13 17 15 11 11 11 9 6 6 6 7 8 6 7 6 5
4 5 5 4 5 5 6 6 5 4 4 2 2 1 1 2 2 3 4 6 6 9 11 11 10 7 10 16 22 22 20 19 19 7 7 7 8 10 9 9 8 8 8
Wind_Direction
207 203 203 201 202 198 194 197 192 194 188 196 194 198 203 199 207 208 205 195 196 189 198 212 223 191 205 211 213 195 211 196 250 270 213 131 145 101 110 93 78 70 72
214 200 201 202 203 202 201 200 197 196 193 193 199 206 205 202 211 202 207 191 197 193 194 205 210 221 204 204 202 187 167 111 295 284 191 210 161 149 100 88 73 74 78
225 210 205 202 204 207 203 204 202 201 200 200 196 201 210 209 202 203 201 199 199 199 197 206 205 206 197 203 198 198 182 160 169 249 299 236 232 139 135 107 76 78 84
229 224 207 210 206 207 204 208 207 206 203 198 201 201 203 203 208 206 198 206 201 199 202 210 205 203 201 221 199 190 168 152 171 145 136 58 355 236 161 146 109 97 94
209 219 212 210 213 205 207 208 208 210 206 202 204 203 207 211 207 210 203 207 208 208 201 199 198 211 217 224 174 169 167 179 153 201 150 179 196 211 248 162 148 134 103
207 212 211 205 209 210 208 207 210 212 209 208 205 211 210 212 209 213 199 201 199 199 201 194 196 199 182 167 159 148 157 166 194 176 178 179 171 174 155 170 141 112 108
211 211 208 202 206 203 207 207 206 211 210 212 210 212 214 212 218 215 206 199 200 196 203 194 190 170 163 147 141 143 148 169 178 167 153 92 71 75 103 104 83 297 121
220 215 207 206 205 210 203 203 210 217 211 210 214 213 215 218 216 215 208 212 207 207 193 188 184 157 153 145 137 142 137 150 144 134 127 123 115 101 101 134 139 165 258
240 238 226 223 217 211 209 201 203 213 216 215 214 215 218 216 215 217 214 209 207 204 181 177 162 153 148 152 143 139 146 143 136 128 129 123 109 96 95 112 216 244 172
242 239 247 234 226 230 218 219 212 208 209 214 212 212 212 213 217 220 219 215 199 155 172 172 160 150 151 156 150 148 155 140 132 134 132 128 138 133 132 145 145 247 321
309 289 272 259 262 251 235 228 226 222 215 213 212 212 209 207 218 220 218 189 151 162 180 180 162 162 158 161 158 150 150 139 141 150 146 147 151 148 149 148 146 141 206
320 298 288 297 274 260 248 233 238 232 228 205 202 214 206 192 207 212 187 163 167 170 176 165 162 160 161 164 162 160 156 149 153 157 151 157 154 154 157 152 168 177 158
19 320 280 259 256 244 236 231 223 215 212 214 203 201 203 208 187 184 180 171 163 164 164 167 164 172 163 165 160 159 153 156 157 160 161 156 164 159 158 160 161 175 166
337 308 282 265 256 253 254 244 221 220 206 206 213 213 206 210 199 197 171 168 167 167 174 176 171 166 167 162 159 156 151 154 155 157 161 161 167 164 162 163 172 160 145
265 256 257 258 261 242 228 233 231 203 192 208 214 218 206 200 171 161 165 159 170 171 167 156 145 143 167 159 167 158 154 153 147 150 147 158 162 162 160 153 175 171 171
281 269 273 284 265 241 240 225 225 208 210 217 210 201 183 185 173 149 145 146 147 152 156 166 165 169 165 167 176 155 152 152 153 154 156 158 152 151 148 171 181 185 174
282 287 307 289 207 225 222 228 226 211 210 217 199 180 166 168 166 159 157 164 168 161 173 174 172 177 158 170 169 153 152 153 157 157 157 155 164 157 161 185 189 199 215
279 307 318 297 267 222 216 227 203 202 204 221 199 174 170 178 163 165 189 185 180 178 180 183 187 175 169 169 161 144 145 146 157 163 166 163 163 174 170 179 196 193 201
61 324 310 307 306 284 180 168 156 197 220 221 199 180 185 175 176 185 184 182 179 182 185 175 172 168 156 166 159 145 146 154 158 165 169 169 171 179 181 190 191 204 215
81 35 348 333 330 8 56 153 171 193 243 249 232 193 187 177 185 190 181 168 166 170 123 135 146 150 151 170 169 156 154 156 156 151 155 169 168 183 192 195 201 209 212
59 34 43 22 350 336 336 216 177 213 238 184 164 160 183 184 175 159 145 157 155 143 150 156 146 148 160 180 180 174 164 164 165 175 178 189 193 193 200 201 211 210 182
68 36 45 49 35 4 345 358 343 3 93 138 150 160 152 150 154 153 134 148 154 164 168 167 162 169 173 177 187 184 186 180 175 184 181 181 194 197 207 212 220 227 234
61 37 47 33 24 24 14 16 359 337 99 122 121 111 134 159 161 165 163 161 170 180 184 183 186 182 171 177 189 194 196 189 181 171 175 180 193 205 216 225 224 227 216
57 40 37 24 16 5 31 19 350 8 71 87 111 129 148 153 176 188 181 185 188 193 192 192 195 186 184 189 192 193 195 199 193 178 178 186 190 193 208 207 226 189 195
51 39 53 41 23 8 20 14 5 4 33 61 79 101 143 179 189 221 211 216 220 214 206 208 203 192 196 202 190 186 191 194 190 160 160 180 186 199 207 198 197 193 191
55 45 45 38 15 25 37 19 8 9 10 21 57 91 169 150 217 227 244 240 268 242 244 230 213 216 220 190 194 197 197 194 178 169 184 194 200 208 203 203 200 199 201